Find Starlink 30892

NORAD ID: 58366 Int'l Des: 2023-177 Owner: SPXS Country: US Constellation: starlink operational
LEOCIRCULAR

リアルタイム位置

3D地球を読み込み中...

Starlink 30892について

説明を読み込み中...

次回通過

Passes for default location (London). Set your location on the main map for personalized predictions.

高度履歴

Loading altitude history...

軌道要素

1 58366U 23177R 26127.97393998 .00003566 00000-0 13906-3 0 9995
2 58366 43.0035 15.8407 0001616 263.6921 96.3747 15.27581619137308
Epoch: May 7, 2026 • Age: 5 hours

現在のステータス

高度 486.2 km
速度 7.63 km/s
衛星直下点 38.72°N, 158.84°W
打ち上げ日 Nov 18, 2023
運用期間 2.4 years
タイプ internet

技術仕様

分類 Payload
質量 730.00 kg
乾燥質量 700.00 kg
総質量 730.00 kg
長さ 0.30 m
直径 4.10 m
スパン 29.00 m
形状 Box + pan
製造者 SPXS
バスタイプ Starlink V2M
フェーズステータス In Orbit
所有者/国 SPXS/US

Most Searched